地点,時刻,積雪(cm)
酸ヶ湯,2022/02/26 23:00,424
酸ヶ湯,2022/02/27 00:00,425
酸ヶ湯,2022/02/27 01:00,426
酸ヶ湯,2022/02/27 02:00,426
酸ヶ湯,2022/02/27 03:00,425
酸ヶ湯,2022/02/27 04:00,424
酸ヶ湯,2022/02/27 05:00,423
酸ヶ湯,2022/02/27 06:00,422
酸ヶ湯,2022/02/27 07:00,422
酸ヶ湯,2022/02/27 08:00,423
酸ヶ湯,2022/02/27 09:00,430
酸ヶ湯,2022/02/27 10:00,430
酸ヶ湯,2022/02/27 11:00,429
酸ヶ湯,2022/02/27 12:00,429
酸ヶ湯,2022/02/27 13:00,431
酸ヶ湯,2022/02/27 14:00,431
酸ヶ湯,2022/02/27 15:00,430
酸ヶ湯,2022/02/27 16:00,429
酸ヶ湯,2022/02/27 17:00,428
酸ヶ湯,2022/02/27 18:00,427
酸ヶ湯,2022/02/27 19:00,426
酸ヶ湯,2022/02/27 20:00,426
酸ヶ湯,2022/02/27 21:00,426
酸ヶ湯,2022/02/27 22:00,426
酸ヶ湯,2022/02/27 23:00,424
酸ヶ湯,2022/02/28 00:00,424
酸ヶ湯,2022/02/28 01:00,424
酸ヶ湯,2022/02/28 02:00,423
酸ヶ湯,2022/02/28 03:00,422
酸ヶ湯,2022/02/28 04:00,422
酸ヶ湯,2022/02/28 05:00,422
酸ヶ湯,2022/02/28 06:00,421
酸ヶ湯,2022/02/28 07:00,420
酸ヶ湯,2022/02/28 08:00,420
酸ヶ湯,2022/02/28 09:00,419
酸ヶ湯,2022/02/28 10:00,419
酸ヶ湯,2022/02/28 11:00,418
酸ヶ湯,2022/02/28 12:00,417
酸ヶ湯,2022/02/28 13:00,417
酸ヶ湯,2022/02/28 14:00,416
酸ヶ湯,2022/02/28 15:00,415
酸ヶ湯,2022/02/28 16:00,415
酸ヶ湯,2022/02/28 17:00,413
酸ヶ湯,2022/02/28 18:00,415
酸ヶ湯,2022/02/28 19:00,414
酸ヶ湯,2022/02/28 20:00,413
酸ヶ湯,2022/02/28 21:00,413
酸ヶ湯,2022/02/28 22:00,413
酸ヶ湯,2022/02/28 23:00,412
酸ヶ湯,2022/03/01 00:00,412
酸ヶ湯,2022/03/01 01:00,412
酸ヶ湯,2022/03/01 02:00,411
酸ヶ湯,2022/03/01 03:00,411
酸ヶ湯,2022/03/01 04:00,410
酸ヶ湯,2022/03/01 05:00,410
酸ヶ湯,2022/03/01 06:00,410
酸ヶ湯,2022/03/01 07:00,409
酸ヶ湯,2022/03/01 08:00,409
酸ヶ湯,2022/03/01 09:00,409
酸ヶ湯,2022/03/01 10:00,409
酸ヶ湯,2022/03/01 11:00,408
酸ヶ湯,2022/03/01 12:00,408
酸ヶ湯,2022/03/01 13:00,408
酸ヶ湯,2022/03/01 14:00,410
酸ヶ湯,2022/03/01 15:00,411
酸ヶ湯,2022/03/01 16:00,412
酸ヶ湯,2022/03/01 17:00,413
酸ヶ湯,2022/03/01 18:00,415
酸ヶ湯,2022/03/01 19:00,416
酸ヶ湯,2022/03/01 20:00,416
酸ヶ湯,2022/03/01 21:00,416
酸ヶ湯,2022/03/01 22:00,416
酸ヶ湯,2022/03/01 23:00,416
酸ヶ湯,2022/03/02 00:00,415
酸ヶ湯,2022/03/02 01:00,415
酸ヶ湯,2022/03/02 02:00,415
酸ヶ湯,2022/03/02 03:00,415
酸ヶ湯,2022/03/02 04:00,414
酸ヶ湯,2022/03/02 05:00,414
酸ヶ湯,2022/03/02 06:00,413
酸ヶ湯,2022/03/02 07:00,413
酸ヶ湯,2022/03/02 08:00,413
酸ヶ湯,2022/03/02 09:00,412
酸ヶ湯,2022/03/02 10:00,412
酸ヶ湯,2022/03/02 11:00,412
酸ヶ湯,2022/03/02 12:00,411
酸ヶ湯,2022/03/02 14:00,410
酸ヶ湯,2022/03/02 15:00,409
酸ヶ湯,2022/03/02 16:00,409
酸ヶ湯,2022/03/02 17:00,409
酸ヶ湯,2022/03/02 18:00,409
酸ヶ湯,2022/03/02 19:00,409
酸ヶ湯,2022/03/02 20:00,409
酸ヶ湯,2022/03/02 21:00,408
酸ヶ湯,2022/03/02 22:00,408
酸ヶ湯,2022/03/02 23:00,408
酸ヶ湯,2022/03/03 00:00,407
酸ヶ湯,2022/03/03 01:00,407
酸ヶ湯,2022/03/03 02:00,407
酸ヶ湯,2022/03/03 03:00,407
酸ヶ湯,2022/03/03 04:00,406
酸ヶ湯,2022/03/03 06:00,408
酸ヶ湯,2022/03/03 07:00,407
酸ヶ湯,2022/03/03 08:00,408
酸ヶ湯,2022/03/03 09:00,412
酸ヶ湯,2022/03/03 10:00,412
酸ヶ湯,2022/03/03 11:00,410
酸ヶ湯,2022/03/03 12:00,411
酸ヶ湯,2022/03/03 13:00,413
酸ヶ湯,2022/03/03 14:00,414
酸ヶ湯,2022/03/03 15:00,416
酸ヶ湯,2022/03/03 16:00,415
酸ヶ湯,2022/03/03 17:00,416
酸ヶ湯,2022/03/03 18:00,415
酸ヶ湯,2022/03/03 19:00,414
酸ヶ湯,2022/03/03 20:00,414
酸ヶ湯,2022/03/03 21:00,414
酸ヶ湯,2022/03/03 22:00,414
酸ヶ湯,2022/03/03 23:00,414
酸ヶ湯,2022/03/04 00:00,416
酸ヶ湯,2022/03/04 01:00,415
酸ヶ湯,2022/03/04 02:00,416
酸ヶ湯,2022/03/04 03:00,415
酸ヶ湯,2022/03/04 04:00,415
酸ヶ湯,2022/03/04 05:00,414
酸ヶ湯,2022/03/04 06:00,414
酸ヶ湯,2022/03/04 07:00,414
酸ヶ湯,2022/03/04 08:00,414
酸ヶ湯,2022/03/04 09:00,413
酸ヶ湯,2022/03/04 10:00,413
酸ヶ湯,2022/03/04 11:00,412
酸ヶ湯,2022/03/04 13:00,411
酸ヶ湯,2022/03/04 14:00,411
酸ヶ湯,2022/03/04 15:00,410
酸ヶ湯,2022/03/04 16:00,410
酸ヶ湯,2022/03/04 17:00,410
酸ヶ湯,2022/03/04 18:00,410
酸ヶ湯,2022/03/04 19:00,409
酸ヶ湯,2022/03/04 20:00,409
酸ヶ湯,2022/03/04 21:00,409
酸ヶ湯,2022/03/04 22:00,409
酸ヶ湯,2022/03/04 23:00,409
酸ヶ湯,2022/03/05 00:00,408
酸ヶ湯,2022/03/05 01:00,408
酸ヶ湯,2022/03/05 02:00,408
酸ヶ湯,2022/03/05 03:00,408
酸ヶ湯,2022/03/05 04:00,407
酸ヶ湯,2022/03/05 05:00,407
酸ヶ湯,2022/03/05 06:00,407
酸ヶ湯,2022/03/05 07:00,407
酸ヶ湯,2022/03/05 08:00,406
酸ヶ湯,2022/03/05 09:00,406
酸ヶ湯,2022/03/05 10:00,406
酸ヶ湯,2022/03/05 11:00,405
酸ヶ湯,2022/03/05 12:00,405
酸ヶ湯,2022/03/05 13:00,407
酸ヶ湯,2022/03/05 14:00,409
酸ヶ湯,2022/03/05 15:00,414
酸ヶ湯,2022/03/05 16:00,414
酸ヶ湯,2022/03/05 17:00,415
酸ヶ湯,2022/03/05 18:00,419
酸ヶ湯,2022/03/05 19:00,419
酸ヶ湯,2022/03/05 20:00,418
酸ヶ湯,2022/03/05 21:00,418
酸ヶ湯,2022/03/05 22:00,419
酸ヶ湯,2022/03/05 23:00,420
酸ヶ湯,2022/03/06 00:00,422
酸ヶ湯,2022/03/06 01:00,421
酸ヶ湯,2022/03/06 02:00,421
酸ヶ湯,2022/03/06 03:00,421
酸ヶ湯,2022/03/06 04:00,421
酸ヶ湯,2022/03/06 05:00,423
酸ヶ湯,2022/03/06 06:00,423
酸ヶ湯,2022/03/06 07:00,424
酸ヶ湯,2022/03/06 08:00,425
酸ヶ湯,2022/03/06 09:00,424
酸ヶ湯,2022/03/06 10:00,424
酸ヶ湯,2022/03/06 11:00,423
酸ヶ湯,2022/03/06 12:00,424
酸ヶ湯,2022/03/06 13:00,425
酸ヶ湯,2022/03/06 14:00,425
酸ヶ湯,2022/03/06 15:00,426
酸ヶ湯,2022/03/06 16:00,430
酸ヶ湯,2022/03/06 17:00,432
酸ヶ湯,2022/03/06 18:00,431
酸ヶ湯,2022/03/06 19:00,432
酸ヶ湯,2022/03/06 20:00,437
酸ヶ湯,2022/03/06 21:00,435
酸ヶ湯,2022/03/06 22:00,433
酸ヶ湯,2022/03/06 23:00,434
酸ヶ湯,2022/03/07 00:00,431
酸ヶ湯,2022/03/07 01:00,431
酸ヶ湯,2022/03/07 02:00,432
酸ヶ湯,2022/03/07 03:00,432
酸ヶ湯,2022/03/07 04:00,431
酸ヶ湯,2022/03/07 05:00,431
酸ヶ湯,2022/03/07 06:00,430
酸ヶ湯,2022/03/07 07:00,430
酸ヶ湯,2022/03/07 08:00,430
酸ヶ湯,2022/03/07 09:00,429
酸ヶ湯,2022/03/07 10:00,429
酸ヶ湯,2022/03/07 11:00,428
酸ヶ湯,2022/03/07 12:00,428
酸ヶ湯,2022/03/07 13:00,427
酸ヶ湯,2022/03/07 14:00,427
酸ヶ湯,2022/03/07 15:00,426
酸ヶ湯,2022/03/07 16:00,426
酸ヶ湯,2022/03/07 17:00,425
酸ヶ湯,2022/03/07 18:00,426
酸ヶ湯,2022/03/07 19:00,425
酸ヶ湯,2022/03/07 20:00,425
酸ヶ湯,2022/03/07 21:00,425
酸ヶ湯,2022/03/07 22:00,425
酸ヶ湯,2022/03/07 23:00,425
酸ヶ湯,2022/03/08 00:00,425
酸ヶ湯,2022/03/08 01:00,425
酸ヶ湯,2022/03/08 02:00,425
酸ヶ湯,2022/03/08 03:00,424
酸ヶ湯,2022/03/08 04:00,424
酸ヶ湯,2022/03/08 05:00,423
酸ヶ湯,2022/03/08 06:00,423
酸ヶ湯,2022/03/08 07:00,423
酸ヶ湯,2022/03/08 08:00,423
酸ヶ湯,2022/03/08 09:00,422
酸ヶ湯,2022/03/08 10:00,422
酸ヶ湯,2022/03/08 11:00,421
酸ヶ湯,2022/03/08 12:00,421
酸ヶ湯,2022/03/08 14:00,420
酸ヶ湯,2022/03/08 15:00,420
酸ヶ湯,2022/03/08 16:00,420
酸ヶ湯,2022/03/08 17:00,420
酸ヶ湯,2022/03/08 18:00,419
酸ヶ湯,2022/03/08 19:00,419
酸ヶ湯,2022/03/08 20:00,419
酸ヶ湯,2022/03/08 21:00,419
酸ヶ湯,2022/03/08 22:00,418
酸ヶ湯,2022/03/08 23:00,418
酸ヶ湯,2022/03/09 00:00,418
酸ヶ湯,2022/03/09 01:00,418
酸ヶ湯,2022/03/09 02:00,418
酸ヶ湯,2022/03/09 03:00,417
酸ヶ湯,2022/03/09 04:00,417
酸ヶ湯,2022/03/09 05:00,417
酸ヶ湯,2022/03/09 06:00,417
酸ヶ湯,2022/03/09 07:00,417
酸ヶ湯,2022/03/09 08:00,416
酸ヶ湯,2022/03/09 09:00,416
酸ヶ湯,2022/03/09 10:00,416
酸ヶ湯,2022/03/09 11:00,415
酸ヶ湯,2022/03/09 12:00,415
酸ヶ湯,2022/03/09 13:00,414
酸ヶ湯,2022/03/09 14:00,414
酸ヶ湯,2022/03/09 15:00,414
酸ヶ湯,2022/03/09 16:00,414
酸ヶ湯,2022/03/09 17:00,414
酸ヶ湯,2022/03/09 18:00,414
酸ヶ湯,2022/03/09 19:00,414
酸ヶ湯,2022/03/09 20:00,414
酸ヶ湯,2022/03/09 21:00,414
酸ヶ湯,2022/03/09 22:00,413
酸ヶ湯,2022/03/09 23:00,413
酸ヶ湯,2022/03/10 00:00,413
酸ヶ湯,2022/03/10 01:00,413
酸ヶ湯,2022/03/10 02:00,413
酸ヶ湯,2022/03/10 03:00,413
酸ヶ湯,2022/03/10 04:00,412
酸ヶ湯,2022/03/10 05:00,412
酸ヶ湯,2022/03/10 06:00,412
酸ヶ湯,2022/03/10 07:00,412
酸ヶ湯,2022/03/10 08:00,412
酸ヶ湯,2022/03/10 09:00,411
酸ヶ湯,2022/03/10 10:00,411
酸ヶ湯,2022/03/10 11:00,411
酸ヶ湯,2022/03/10 12:00,410
酸ヶ湯,2022/03/10 13:00,410
酸ヶ湯,2022/03/10 14:00,409
酸ヶ湯,2022/03/10 15:00,409
酸ヶ湯,2022/03/10 16:00,409
酸ヶ湯,2022/03/10 17:00,409
酸ヶ湯,2022/03/10 18:00,409
酸ヶ湯,2022/03/10 19:00,409
酸ヶ湯,2022/03/10 20:00,409
酸ヶ湯,2022/03/10 21:00,409
酸ヶ湯,2022/03/10 22:00,409
酸ヶ湯,2022/03/10 23:00,409
酸ヶ湯,2022/03/11 00:00,408
酸ヶ湯,2022/03/11 01:00,408
酸ヶ湯,2022/03/11 02:00,408
酸ヶ湯,2022/03/11 03:00,408
酸ヶ湯,2022/03/11 04:00,408
酸ヶ湯,2022/03/11 05:00,408
酸ヶ湯,2022/03/11 06:00,407
酸ヶ湯,2022/03/11 07:00,407
酸ヶ湯,2022/03/11 08:00,407
酸ヶ湯,2022/03/11 09:00,407
酸ヶ湯,2022/03/11 10:00,407
酸ヶ湯,2022/03/11 11:00,406
酸ヶ湯,2022/03/11 12:00,405
酸ヶ湯,2022/03/11 13:00,403
酸ヶ湯,2022/03/11 14:00,403
酸ヶ湯,2022/03/11 15:00,403
酸ヶ湯,2022/03/11 16:00,402
酸ヶ湯,2022/03/11 17:00,402
酸ヶ湯,2022/03/11 18:00,401
酸ヶ湯,2022/03/11 19:00,401
酸ヶ湯,2022/03/11 20:00,401
酸ヶ湯,2022/03/11 21:00,400
酸ヶ湯,2022/03/11 22:00,402
酸ヶ湯,2022/03/11 23:00,403
酸ヶ湯,2022/03/12 00:00,403
酸ヶ湯,2022/03/12 01:00,402
酸ヶ湯,2022/03/12 02:00,403
酸ヶ湯,2022/03/12 03:00,402
酸ヶ湯,2022/03/12 04:00,402
酸ヶ湯,2022/03/12 05:00,402
酸ヶ湯,2022/03/12 06:00,401
酸ヶ湯,2022/03/12 07:00,401
酸ヶ湯,2022/03/12 08:00,401
酸ヶ湯,2022/03/12 09:00,401
酸ヶ湯,2022/03/12 10:00,400
酸ヶ湯,2022/03/12 12:00,400
酸ヶ湯,2022/03/12 13:00,399
酸ヶ湯,2022/03/12 14:00,398
酸ヶ湯,2022/03/12 15:00,398
酸ヶ湯,2022/03/12 16:00,398
酸ヶ湯,2022/03/12 17:00,398
酸ヶ湯,2022/03/12 18:00,398
酸ヶ湯,2022/03/12 19:00,398
酸ヶ湯,2022/03/12 20:00,398
酸ヶ湯,2022/03/12 21:00,398
酸ヶ湯,2022/03/12 22:00,397
酸ヶ湯,2022/03/12 23:00,397
酸ヶ湯,2022/03/13 00:00,397
酸ヶ湯,2022/03/13 01:00,397
酸ヶ湯,2022/03/13 02:00,397
酸ヶ湯,2022/03/13 03:00,397
酸ヶ湯,2022/03/13 04:00,397
酸ヶ湯,2022/03/13 05:00,396
酸ヶ湯,2022/03/13 06:00,396
酸ヶ湯,2022/03/13 07:00,396
酸ヶ湯,2022/03/13 08:00,396
酸ヶ湯,2022/03/13 09:00,396
酸ヶ湯,2022/03/13 10:00,396
酸ヶ湯,2022/03/13 11:00,396
酸ヶ湯,2022/03/13 12:00,396
酸ヶ湯,2022/03/13 13:00,397
酸ヶ湯,2022/03/13 14:00,396
酸ヶ湯,2022/03/13 15:00,395
酸ヶ湯,2022/03/13 16:00,395
酸ヶ湯,2022/03/13 17:00,394
酸ヶ湯,2022/03/13 18:00,393
酸ヶ湯,2022/03/13 19:00,393
酸ヶ湯,2022/03/13 20:00,393
酸ヶ湯,2022/03/13 21:00,392
酸ヶ湯,2022/03/13 22:00,392
酸ヶ湯,2022/03/13 23:00,391
酸ヶ湯,2022/03/14 00:00,391
酸ヶ湯,2022/03/14 01:00,390
酸ヶ湯,2022/03/14 02:00,390
酸ヶ湯,2022/03/14 03:00,390
酸ヶ湯,2022/03/14 04:00,390
酸ヶ湯,2022/03/14 05:00,389
酸ヶ湯,2022/03/14 06:00,389
酸ヶ湯,2022/03/14 07:00,389
酸ヶ湯,2022/03/14 08:00,389
酸ヶ湯,2022/03/14 09:00,389
酸ヶ湯,2022/03/14 10:00,389
酸ヶ湯,2022/03/14 11:00,388
酸ヶ湯,2022/03/14 12:00,388
酸ヶ湯,2022/03/14 13:00,387
酸ヶ湯,2022/03/14 14:00,386
酸ヶ湯,2022/03/14 15:00,386
酸ヶ湯,2022/03/14 16:00,386
酸ヶ湯,2022/03/14 17:00,386
酸ヶ湯,2022/03/14 18:00,385
酸ヶ湯,2022/03/14 19:00,385
酸ヶ湯,2022/03/14 20:00,385
酸ヶ湯,2022/03/14 21:00,385
酸ヶ湯,2022/03/14 22:00,385
酸ヶ湯,2022/03/14 23:00,385
酸ヶ湯,2022/03/15 00:00,384
酸ヶ湯,2022/03/15 01:00,384
酸ヶ湯,2022/03/15 02:00,384
酸ヶ湯,2022/03/15 03:00,384
酸ヶ湯,2022/03/15 04:00,384
酸ヶ湯,2022/03/15 05:00,389
酸ヶ湯,2022/03/15 06:00,392
酸ヶ湯,2022/03/15 07:00,389
酸ヶ湯,2022/03/15 08:00,389
酸ヶ湯,2022/03/15 09:00,389
酸ヶ湯,2022/03/15 10:00,388
酸ヶ湯,2022/03/15 11:00,387
酸ヶ湯,2022/03/15 12:00,386
酸ヶ湯,2022/03/15 13:00,385
酸ヶ湯,2022/03/15 14:00,385
酸ヶ湯,2022/03/15 15:00,385
酸ヶ湯,2022/03/15 16:00,386
酸ヶ湯,2022/03/15 17:00,387
酸ヶ湯,2022/03/15 18:00,388
酸ヶ湯,2022/03/15 19:00,388
酸ヶ湯,2022/03/15 20:00,387
酸ヶ湯,2022/03/15 21:00,387
酸ヶ湯,2022/03/15 22:00,387
酸ヶ湯,2022/03/15 23:00,388
酸ヶ湯,2022/03/16 00:00,388
酸ヶ湯,2022/03/16 01:00,389
酸ヶ湯,2022/03/16 02:00,389
酸ヶ湯,2022/03/16 03:00,389
酸ヶ湯,2022/03/16 04:00,389
酸ヶ湯,2022/03/16 05:00,389
酸ヶ湯,2022/03/16 06:00,389
酸ヶ湯,2022/03/16 07:00,388
酸ヶ湯,2022/03/16 08:00,388
酸ヶ湯,2022/03/16 09:00,388
酸ヶ湯,2022/03/16 10:00,388
酸ヶ湯,2022/03/16 11:00,387
酸ヶ湯,2022/03/16 12:00,386
酸ヶ湯,2022/03/16 13:00,386
酸ヶ湯,2022/03/16 14:00,385
酸ヶ湯,2022/03/16 15:00,385
酸ヶ湯,2022/03/16 16:00,385
酸ヶ湯,2022/03/16 17:00,385
酸ヶ湯,2022/03/16 18:00,384
酸ヶ湯,2022/03/16 19:00,384
酸ヶ湯,2022/03/16 20:00,384
酸ヶ湯,2022/03/16 21:00,384
酸ヶ湯,2022/03/16 22:00,384
酸ヶ湯,2022/03/16 23:00,384
酸ヶ湯,2022/03/17 00:00,385
酸ヶ湯,2022/03/17 01:00,385
酸ヶ湯,2022/03/17 02:00,385
酸ヶ湯,2022/03/17 03:00,385
酸ヶ湯,2022/03/17 04:00,386
酸ヶ湯,2022/03/17 05:00,386
酸ヶ湯,2022/03/17 06:00,386
酸ヶ湯,2022/03/17 07:00,386
酸ヶ湯,2022/03/17 08:00,386
酸ヶ湯,2022/03/17 09:00,386
酸ヶ湯,2022/03/17 10:00,386
酸ヶ湯,2022/03/17 11:00,387
酸ヶ湯,2022/03/17 12:00,387
酸ヶ湯,2022/03/17 13:00,387
酸ヶ湯,2022/03/17 14:00,388
酸ヶ湯,2022/03/17 15:00,388
酸ヶ湯,2022/03/17 16:00,388
酸ヶ湯,2022/03/17 17:00,388
酸ヶ湯,2022/03/17 18:00,388
酸ヶ湯,2022/03/17 19:00,387
酸ヶ湯,2022/03/17 20:00,387
酸ヶ湯,2022/03/17 21:00,387
酸ヶ湯,2022/03/17 22:00,387
酸ヶ湯,2022/03/17 23:00,386
酸ヶ湯,2022/03/18 00:00,386
酸ヶ湯,2022/03/18 01:00,386
酸ヶ湯,2022/03/18 02:00,386
酸ヶ湯,2022/03/18 03:00,386
酸ヶ湯,2022/03/18 04:00,386
酸ヶ湯,2022/03/18 05:00,386
酸ヶ湯,2022/03/18 06:00,386
酸ヶ湯,2022/03/18 07:00,385
酸ヶ湯,2022/03/18 08:00,385
酸ヶ湯,2022/03/18 09:00,385
酸ヶ湯,2022/03/18 10:00,385
酸ヶ湯,2022/03/18 11:00,384
酸ヶ湯,2022/03/18 12:00,384
酸ヶ湯,2022/03/18 13:00,384
酸ヶ湯,2022/03/18 14:00,383
酸ヶ湯,2022/03/18 15:00,383
酸ヶ湯,2022/03/18 16:00,383
酸ヶ湯,2022/03/18 17:00,383
酸ヶ湯,2022/03/18 18:00,383
酸ヶ湯,2022/03/18 19:00,384
酸ヶ湯,2022/03/18 20:00,384
酸ヶ湯,2022/03/18 21:00,386
酸ヶ湯,2022/03/18 22:00,387
酸ヶ湯,2022/03/18 23:00,387
酸ヶ湯,2022/03/19 00:00,384
酸ヶ湯,2022/03/19 01:00,383
酸ヶ湯,2022/03/19 02:00,388
酸ヶ湯,2022/03/19 03:00,388
酸ヶ湯,2022/03/19 04:00,385
酸ヶ湯,2022/03/19 05:00,400
酸ヶ湯,2022/03/19 06:00,392
酸ヶ湯,2022/03/19 07:00,383
酸ヶ湯,2022/03/19 08:00,382
酸ヶ湯,2022/03/19 09:00,395
酸ヶ湯,2022/03/19 10:00,390
酸ヶ湯,2022/03/19 11:00,389
酸ヶ湯,2022/03/19 12:00,388
酸ヶ湯,2022/03/19 13:00,388
酸ヶ湯,2022/03/19 14:00,388
酸ヶ湯,2022/03/19 15:00,388
酸ヶ湯,2022/03/19 16:00,388
酸ヶ湯,2022/03/19 17:00,388
酸ヶ湯,2022/03/19 18:00,388
酸ヶ湯,2022/03/19 19:00,389
酸ヶ湯,2022/03/19 20:00,389
酸ヶ湯,2022/03/19 21:00,388
酸ヶ湯,2022/03/19 22:00,388
酸ヶ湯,2022/03/19 23:00,389
酸ヶ湯,2022/03/20 00:00,389
酸ヶ湯,2022/03/20 01:00,389
酸ヶ湯,2022/03/20 02:00,389
酸ヶ湯,2022/03/20 03:00,389
酸ヶ湯,2022/03/20 04:00,391
酸ヶ湯,2022/03/20 05:00,391
酸ヶ湯,2022/03/20 06:00,392
酸ヶ湯,2022/03/20 07:00,392
酸ヶ湯,2022/03/20 08:00,392
酸ヶ湯,2022/03/20 09:00,393
酸ヶ湯,2022/03/20 10:00,393
酸ヶ湯,2022/03/20 11:00,392
酸ヶ湯,2022/03/20 12:00,396
酸ヶ湯,2022/03/20 13:00,397
酸ヶ湯,2022/03/20 14:00,399
酸ヶ湯,2022/03/20 15:00,400
酸ヶ湯,2022/03/20 16:00,402
酸ヶ湯,2022/03/20 17:00,401
酸ヶ湯,2022/03/20 18:00,402
酸ヶ湯,2022/03/20 19:00,401
酸ヶ湯,2022/03/20 20:00,402
酸ヶ湯,2022/03/20 21:00,402
酸ヶ湯,2022/03/20 22:00,402
酸ヶ湯,2022/03/20 23:00,401
酸ヶ湯,2022/03/21 00:00,401
酸ヶ湯,2022/03/21 02:00,401
酸ヶ湯,2022/03/21 03:00,400
酸ヶ湯,2022/03/21 04:00,400
酸ヶ湯,2022/03/21 05:00,400
酸ヶ湯,2022/03/21 06:00,402
酸ヶ湯,2022/03/21 07:00,402
酸ヶ湯,2022/03/21 08:00,401
酸ヶ湯,2022/03/21 09:00,401
酸ヶ湯,2022/03/21 10:00,401
酸ヶ湯,2022/03/21 11:00,400
酸ヶ湯,2022/03/21 12:00,400
酸ヶ湯,2022/03/21 13:00,399
酸ヶ湯,2022/03/21 14:00,399
酸ヶ湯,2022/03/21 15:00,398
酸ヶ湯,2022/03/21 16:00,398
酸ヶ湯,2022/03/21 17:00,398
酸ヶ湯,2022/03/21 18:00,398
酸ヶ湯,2022/03/21 19:00,398
酸ヶ湯,2022/03/21 20:00,398
酸ヶ湯,2022/03/21 21:00,398
酸ヶ湯,2022/03/21 22:00,398
酸ヶ湯,2022/03/21 23:00,397
酸ヶ湯,2022/03/22 00:00,397
酸ヶ湯,2022/03/22 01:00,397
酸ヶ湯,2022/03/22 02:00,397
酸ヶ湯,2022/03/22 03:00,397
酸ヶ湯,2022/03/22 04:00,397
酸ヶ湯,2022/03/22 05:00,397
酸ヶ湯,2022/03/22 06:00,397
酸ヶ湯,2022/03/22 07:00,396
酸ヶ湯,2022/03/22 08:00,396
酸ヶ湯,2022/03/22 09:00,396
酸ヶ湯,2022/03/22 10:00,396
酸ヶ湯,2022/03/22 11:00,396
酸ヶ湯,2022/03/22 13:00,395
酸ヶ湯,2022/03/22 14:00,394
酸ヶ湯,2022/03/22 15:00,394
酸ヶ湯,2022/03/22 16:00,394
酸ヶ湯,2022/03/22 17:00,394
酸ヶ湯,2022/03/22 18:00,395
酸ヶ湯,2022/03/22 19:00,395
酸ヶ湯,2022/03/22 20:00,395
酸ヶ湯,2022/03/22 21:00,394
酸ヶ湯,2022/03/22 22:00,394
酸ヶ湯,2022/03/22 23:00,394
酸ヶ湯,2022/03/23 00:00,394
酸ヶ湯,2022/03/23 01:00,394
酸ヶ湯,2022/03/23 02:00,394
酸ヶ湯,2022/03/23 03:00,394
酸ヶ湯,2022/03/23 04:00,394
酸ヶ湯,2022/03/23 05:00,393
酸ヶ湯,2022/03/23 06:00,393
酸ヶ湯,2022/03/23 07:00,393
酸ヶ湯,2022/03/23 08:00,393
酸ヶ湯,2022/03/23 09:00,393
酸ヶ湯,2022/03/23 10:00,393
酸ヶ湯,2022/03/23 11:00,392
酸ヶ湯,2022/03/23 13:00,391
酸ヶ湯,2022/03/23 14:00,391
酸ヶ湯,2022/03/23 15:00,391
酸ヶ湯,2022/03/23 16:00,391
酸ヶ湯,2022/03/23 17:00,391
酸ヶ湯,2022/03/23 18:00,391
酸ヶ湯,2022/03/23 19:00,391
酸ヶ湯,2022/03/23 20:00,391
酸ヶ湯,2022/03/23 21:00,390
酸ヶ湯,2022/03/23 22:00,390
酸ヶ湯,2022/03/23 23:00,390
酸ヶ湯,2022/03/24 00:00,390
酸ヶ湯,2022/03/24 01:00,390
酸ヶ湯,2022/03/24 02:00,390
酸ヶ湯,2022/03/24 03:00,390
酸ヶ湯,2022/03/24 04:00,390
酸ヶ湯,2022/03/24 05:00,390
酸ヶ湯,2022/03/24 06:00,390
酸ヶ湯,2022/03/24 07:00,390
酸ヶ湯,2022/03/24 08:00,390
酸ヶ湯,2022/03/24 09:00,390
酸ヶ湯,2022/03/24 11:00,389
酸ヶ湯,2022/03/24 12:00,389
酸ヶ湯,2022/03/24 13:00,388
酸ヶ湯,2022/03/24 14:00,387
酸ヶ湯,2022/03/24 15:00,387
酸ヶ湯,2022/03/24 16:00,389
酸ヶ湯,2022/03/24 17:00,389
酸ヶ湯,2022/03/24 18:00,389
酸ヶ湯,2022/03/24 19:00,389
酸ヶ湯,2022/03/24 20:00,389
酸ヶ湯,2022/03/24 21:00,389
酸ヶ湯,2022/03/24 22:00,389
酸ヶ湯,2022/03/24 23:00,389
酸ヶ湯,2022/03/25 00:00,389
酸ヶ湯,2022/03/25 01:00,389
酸ヶ湯,2022/03/25 02:00,389
酸ヶ湯,2022/03/25 03:00,389
酸ヶ湯,2022/03/25 04:00,389
酸ヶ湯,2022/03/25 05:00,389
酸ヶ湯,2022/03/25 06:00,389
酸ヶ湯,2022/03/25 07:00,389
酸ヶ湯,2022/03/25 08:00,389
酸ヶ湯,2022/03/25 09:00,388
酸ヶ湯,2022/03/25 10:00,388
酸ヶ湯,2022/03/25 11:00,387
酸ヶ湯,2022/03/25 12:00,386
酸ヶ湯,2022/03/25 13:00,385
酸ヶ湯,2022/03/25 14:00,384
酸ヶ湯,2022/03/25 15:00,385
酸ヶ湯,2022/03/25 16:00,384
酸ヶ湯,2022/03/25 17:00,384
酸ヶ湯,2022/03/25 18:00,384
酸ヶ湯,2022/03/25 19:00,383
酸ヶ湯,2022/03/25 20:00,383
酸ヶ湯,2022/03/25 21:00,383
酸ヶ湯,2022/03/25 22:00,383
酸ヶ湯,2022/03/25 23:00,383
酸ヶ湯,2022/03/26 00:00,383
酸ヶ湯,2022/03/26 01:00,383
酸ヶ湯,2022/03/26 02:00,383
酸ヶ湯,2022/03/26 03:00,383
酸ヶ湯,2022/03/26 04:00,382
酸ヶ湯,2022/03/26 05:00,382
酸ヶ湯,2022/03/26 06:00,382
酸ヶ湯,2022/03/26 07:00,382
酸ヶ湯,2022/03/26 08:00,381
酸ヶ湯,2022/03/26 09:00,381
酸ヶ湯,2022/03/26 10:00,381
酸ヶ湯,2022/03/26 11:00,380
酸ヶ湯,2022/03/26 12:00,380
酸ヶ湯,2022/03/26 13:00,380
酸ヶ湯,2022/03/26 14:00,379
酸ヶ湯,2022/03/26 15:00,379
酸ヶ湯,2022/03/26 16:00,378
酸ヶ湯,2022/03/26 17:00,377
酸ヶ湯,2022/03/26 18:00,377
酸ヶ湯,2022/03/26 19:00,376
酸ヶ湯,2022/03/26 20:00,376
酸ヶ湯,2022/03/26 21:00,376
酸ヶ湯,2022/03/26 22:00,374
酸ヶ湯,2022/03/26 23:00,373
酸ヶ湯,2022/03/27 00:00,372
酸ヶ湯,2022/03/27 01:00,370
酸ヶ湯,2022/03/27 02:00,370
酸ヶ湯,2022/03/27 03:00,369
酸ヶ湯,2022/03/27 04:00,368
酸ヶ湯,2022/03/27 05:00,368
酸ヶ湯,2022/03/27 06:00,368
酸ヶ湯,2022/03/27 07:00,367
酸ヶ湯,2022/03/27 08:00,367
酸ヶ湯,2022/03/27 09:00,367
酸ヶ湯,2022/03/27 10:00,367
酸ヶ湯,2022/03/27 11:00,367
酸ヶ湯,2022/03/27 13:00,365
酸ヶ湯,2022/03/27 14:00,364
酸ヶ湯,2022/03/27 16:00,363
酸ヶ湯,2022/03/27 17:00,364
酸ヶ湯,2022/03/27 18:00,364
酸ヶ湯,2022/03/27 20:00,364
酸ヶ湯,2022/03/27 21:00,364
酸ヶ湯,2022/03/27 22:00,364
酸ヶ湯,2022/03/27 23:00,364
酸ヶ湯,2022/03/28 00:00,364
酸ヶ湯,2022/03/28 01:00,364
酸ヶ湯,2022/03/28 02:00,364
酸ヶ湯,2022/03/28 03:00,368
酸ヶ湯,2022/03/28 04:00,368
酸ヶ湯,2022/03/28 05:00,370
酸ヶ湯,2022/03/28 06:00,370
酸ヶ湯,2022/03/28 07:00,371
酸ヶ湯,2022/03/28 08:00,370
酸ヶ湯,2022/03/28 09:00,370
酸ヶ湯,2022/03/28 10:00,370
酸ヶ湯,2022/03/28 11:00,370
酸ヶ湯,2022/03/28 12:00,369
酸ヶ湯,2022/03/28 13:00,369
酸ヶ湯,2022/03/28 14:00,369
酸ヶ湯,2022/03/28 15:00,369
酸ヶ湯,2022/03/28 16:00,368
酸ヶ湯,2022/03/28 17:00,368
酸ヶ湯,2022/03/28 18:00,368
酸ヶ湯,2022/03/28 19:00,368
酸ヶ湯,2022/03/28 20:00,368
酸ヶ湯,2022/03/28 21:00,368
酸ヶ湯,2022/03/28 22:00,368
酸ヶ湯,2022/03/28 23:00,368
酸ヶ湯,2022/03/29 00:00,367
酸ヶ湯,2022/03/29 01:00,367
酸ヶ湯,2022/03/29 02:00,367
酸ヶ湯,2022/03/29 03:00,367
酸ヶ湯,2022/03/29 04:00,367
酸ヶ湯,2022/03/29 05:00,367
酸ヶ湯,2022/03/29 06:00,367
酸ヶ湯,2022/03/29 07:00,367
酸ヶ湯,2022/03/29 08:00,367
酸ヶ湯,2022/03/29 09:00,366
酸ヶ湯,2022/03/29 10:00,366
酸ヶ湯,2022/03/29 13:00,361
酸ヶ湯,2022/03/29 14:00,361
酸ヶ湯,2022/03/29 15:00,360
酸ヶ湯,2022/03/29 16:00,361
酸ヶ湯,2022/03/29 17:00,361
酸ヶ湯,2022/03/29 18:00,361
酸ヶ湯,2022/03/29 19:00,361
酸ヶ湯,2022/03/29 20:00,361
酸ヶ湯,2022/03/29 21:00,361
酸ヶ湯,2022/03/29 22:00,361
酸ヶ湯,2022/03/29 23:00,361
酸ヶ湯,2022/03/30 00:00,361
酸ヶ湯,2022/03/30 01:00,361
酸ヶ湯,2022/03/30 02:00,361
酸ヶ湯,2022/03/30 03:00,361
酸ヶ湯,2022/03/30 04:00,361
酸ヶ湯,2022/03/30 05:00,361
酸ヶ湯,2022/03/30 06:00,361
酸ヶ湯,2022/03/30 07:00,360
酸ヶ湯,2022/03/30 08:00,360
酸ヶ湯,2022/03/30 09:00,360
酸ヶ湯,2022/03/30 10:00,359
酸ヶ湯,2022/03/30 11:00,358
酸ヶ湯,2022/03/30 12:00,356
酸ヶ湯,2022/03/30 13:00,356
酸ヶ湯,2022/03/30 14:00,355
酸ヶ湯,2022/03/30 15:00,355
酸ヶ湯,2022/03/30 16:00,354
酸ヶ湯,2022/03/30 17:00,354
酸ヶ湯,2022/03/30 18:00,355
酸ヶ湯,2022/03/30 19:00,354
酸ヶ湯,2022/03/30 20:00,354
酸ヶ湯,2022/03/30 21:00,354
酸ヶ湯,2022/03/30 22:00,354
酸ヶ湯,2022/03/30 23:00,354
酸ヶ湯,2022/03/31 00:00,353
酸ヶ湯,2022/03/31 01:00,353
酸ヶ湯,2022/03/31 02:00,353
酸ヶ湯,2022/03/31 03:00,353
酸ヶ湯,2022/03/31 04:00,353
酸ヶ湯,2022/03/31 05:00,353
酸ヶ湯,2022/03/31 06:00,353
酸ヶ湯,2022/03/31 07:00,353
酸ヶ湯,2022/03/31 08:00,353
酸ヶ湯,2022/03/31 09:00,353
酸ヶ湯,2022/03/31 10:00,353
酸ヶ湯,2022/03/31 11:00,354
酸ヶ湯,2022/03/31 12:00,354
酸ヶ湯,2022/03/31 13:00,354
酸ヶ湯,2022/03/31 14:00,353
酸ヶ湯,2022/03/31 15:00,353
酸ヶ湯,2022/03/31 16:00,353
酸ヶ湯,2022/03/31 17:00,353
酸ヶ湯,2022/03/31 18:00,353
酸ヶ湯,2022/03/31 19:00,353
酸ヶ湯,2022/03/31 20:00,353
酸ヶ湯,2022/03/31 21:00,353
酸ヶ湯,2022/03/31 22:00,353
酸ヶ湯,2022/03/31 23:00,353
酸ヶ湯,2022/04/01 00:00,353
酸ヶ湯,2022/04/01 01:00,353
酸ヶ湯,2022/04/01 02:00,352
酸ヶ湯,2022/04/01 03:00,352
酸ヶ湯,2022/04/01 04:00,352
酸ヶ湯,2022/04/01 05:00,353
酸ヶ湯,2022/04/01 06:00,354
酸ヶ湯,2022/04/01 07:00,354
酸ヶ湯,2022/04/01 08:00,356
酸ヶ湯,2022/04/01 09:00,356
酸ヶ湯,2022/04/01 10:00,355
酸ヶ湯,2022/04/01 11:00,355
酸ヶ湯,2022/04/01 12:00,355
酸ヶ湯,2022/04/01 13:00,355
酸ヶ湯,2022/04/01 14:00,355
酸ヶ湯,2022/04/01 15:00,355
酸ヶ湯,2022/04/01 16:00,355
酸ヶ湯,2022/04/01 17:00,354
酸ヶ湯,2022/04/01 18:00,354
酸ヶ湯,2022/04/01 19:00,353
酸ヶ湯,2022/04/01 20:00,353
酸ヶ湯,2022/04/01 21:00,353
酸ヶ湯,2022/04/01 22:00,353
酸ヶ湯,2022/04/01 23:00,353
酸ヶ湯,2022/04/02 00:00,353
酸ヶ湯,2022/04/02 01:00,354
酸ヶ湯,2022/04/02 02:00,355
酸ヶ湯,2022/04/02 03:00,355
酸ヶ湯,2022/04/02 04:00,355
酸ヶ湯,2022/04/02 05:00,355
酸ヶ湯,2022/04/02 06:00,355
酸ヶ湯,2022/04/02 07:00,355
酸ヶ湯,2022/04/02 08:00,354
酸ヶ湯,2022/04/02 09:00,354
酸ヶ湯,2022/04/02 13:00,351
酸ヶ湯,2022/04/02 14:00,351
酸ヶ湯,2022/04/02 15:00,351
酸ヶ湯,2022/04/02 16:00,350
酸ヶ湯,2022/04/02 17:00,350
酸ヶ湯,2022/04/02 18:00,351
酸ヶ湯,2022/04/02 19:00,351
酸ヶ湯,2022/04/02 20:00,351
酸ヶ湯,2022/04/02 21:00,351
酸ヶ湯,2022/04/02 22:00,351
酸ヶ湯,2022/04/02 23:00,351
酸ヶ湯,2022/04/03 00:00,351
酸ヶ湯,2022/04/03 01:00,350
酸ヶ湯,2022/04/03 02:00,350
酸ヶ湯,2022/04/03 03:00,350
酸ヶ湯,2022/04/03 04:00,350
酸ヶ湯,2022/04/03 05:00,350
酸ヶ湯,2022/04/03 06:00,350
酸ヶ湯,2022/04/03 07:00,350
酸ヶ湯,2022/04/03 08:00,350
酸ヶ湯,2022/04/03 09:00,350
酸ヶ湯,2022/04/03 10:00,350
酸ヶ湯,2022/04/03 11:00,349
酸ヶ湯,2022/04/03 12:00,348
酸ヶ湯,2022/04/03 13:00,347
酸ヶ湯,2022/04/03 14:00,347
酸ヶ湯,2022/04/03 15:00,347
酸ヶ湯,2022/04/03 16:00,346
酸ヶ湯,2022/04/03 17:00,347
酸ヶ湯,2022/04/03 18:00,347
酸ヶ湯,2022/04/03 19:00,348
酸ヶ湯,2022/04/03 20:00,348
酸ヶ湯,2022/04/03 21:00,348
酸ヶ湯,2022/04/03 22:00,347
酸ヶ湯,2022/04/03 23:00,347
酸ヶ湯,2022/04/04 00:00,347
酸ヶ湯,2022/04/04 01:00,347
酸ヶ湯,2022/04/04 02:00,347
酸ヶ湯,2022/04/04 03:00,347
酸ヶ湯,2022/04/04 04:00,347
酸ヶ湯,2022/04/04 05:00,347
酸ヶ湯,2022/04/04 07:00,347
酸ヶ湯,2022/04/04 08:00,347
酸ヶ湯,2022/04/04 09:00,346
酸ヶ湯,2022/04/04 10:00,345
酸ヶ湯,2022/04/04 11:00,344
酸ヶ湯,2022/04/04 12:00,344
酸ヶ湯,2022/04/04 13:00,344
酸ヶ湯,2022/04/04 14:00,343
酸ヶ湯,2022/04/04 15:00,343
酸ヶ湯,2022/04/04 16:00,343
酸ヶ湯,2022/04/04 17:00,343
酸ヶ湯,2022/04/04 18:00,343
酸ヶ湯,2022/04/04 19:00,342
酸ヶ湯,2022/04/04 20:00,342
酸ヶ湯,2022/04/04 21:00,342
酸ヶ湯,2022/04/04 22:00,342
酸ヶ湯,2022/04/04 23:00,342
酸ヶ湯,2022/04/05 00:00,342
酸ヶ湯,2022/04/05 01:00,342
酸ヶ湯,2022/04/05 02:00,342
酸ヶ湯,2022/04/05 03:00,342
酸ヶ湯,2022/04/05 04:00,342
酸ヶ湯,2022/04/05 05:00,342
酸ヶ湯,2022/04/05 06:00,342
酸ヶ湯,2022/04/05 07:00,342
酸ヶ湯,2022/04/05 08:00,342
酸ヶ湯,2022/04/05 09:00,341
酸ヶ湯,2022/04/05 10:00,341
酸ヶ湯,2022/04/05 11:00,340
酸ヶ湯,2022/04/05 12:00,338
酸ヶ湯,2022/04/05 13:00,338
酸ヶ湯,2022/04/05 14:00,337
酸ヶ湯,2022/04/05 15:00,336
酸ヶ湯,2022/04/05 16:00,335
酸ヶ湯,2022/04/05 17:00,335
酸ヶ湯,2022/04/05 18:00,335
酸ヶ湯,2022/04/05 19:00,335
酸ヶ湯,2022/04/05 20:00,335
酸ヶ湯,2022/04/05 21:00,335
酸ヶ湯,2022/04/05 22:00,335
酸ヶ湯,2022/04/05 23:00,335
酸ヶ湯,2022/04/06 00:00,335
酸ヶ湯,2022/04/06 01:00,334
酸ヶ湯,2022/04/06 02:00,334
酸ヶ湯,2022/04/06 03:00,334
酸ヶ湯,2022/04/06 04:00,334
酸ヶ湯,2022/04/06 05:00,333
酸ヶ湯,2022/04/06 06:00,333
酸ヶ湯,2022/04/06 07:00,333
酸ヶ湯,2022/04/06 08:00,333
酸ヶ湯,2022/04/06 09:00,333
酸ヶ湯,2022/04/06 10:00,333
酸ヶ湯,2022/04/06 11:00,332
酸ヶ湯,2022/04/06 12:00,331
酸ヶ湯,2022/04/06 13:00,331
酸ヶ湯,2022/04/06 14:00,331
酸ヶ湯,2022/04/06 15:00,331
酸ヶ湯,2022/04/06 16:00,331
酸ヶ湯,2022/04/06 17:00,331
酸ヶ湯,2022/04/06 18:00,331
酸ヶ湯,2022/04/06 19:00,331
酸ヶ湯,2022/04/06 20:00,331
酸ヶ湯,2022/04/06 21:00,331
酸ヶ湯,2022/04/06 22:00,331
酸ヶ湯,2022/04/06 23:00,331
酸ヶ湯,2022/04/07 00:00,330
酸ヶ湯,2022/04/07 01:00,330
酸ヶ湯,2022/04/07 02:00,331